DAMPETORP Weather Reports


Display with metric or nautical units.
time (UTC)temp
F
wind
direction
speed
MPH
gust
MPH
rain 1hr
in
rain 24hr
in
rain mn
in
humidity
%
barometer
mb
20260906164516 61 59 0.0 1.0 0.00 0.10 0.01 72 1015.1
20260906163015 61 58 0.0 2.0 0.00 0.10 0.01 72 1015.2
20260906161520 62 134 0.0 4.0 0.00 0.10 0.01 71 1015.2
20260906160013 62 158 0.0 3.0 0.00 0.23 0.01 71 1015.1
20260906154525 62 72 2.0 6.0 0.00 0.23 0.01 70 1015.1
20260906153013 63 69 1.0 7.0 0.00 0.23 0.01 68 1015.1
20260906151512 63 101 1.0 6.0 0.00 0.23 0.01 68 1015.1
20260906150011 63 72 0.0 6.0 0.00 0.44 0.01 68 1015.0
20260906144515 64 139 0.0 4.0 0.00 0.44 0.01 67 1014.9
20260906143008 64 97 0.0 6.0 0.00 0.44 0.01 65 1014.9
20260906141507 64 150 1.0 4.0 0.00 0.44 0.01 63 1014.9
20260906140007 65 137 0.0 8.0 0.00 0.44 0.01 63 1014.7
20260906134505 65 118 2.0 7.0 0.00 0.44 0.01 60 1014.6
20260906133010 64 131 2.0 6.0 0.00 0.44 0.01 61 1014.6
20260906131503 65 150 2.0 11.0 0.00 0.44 0.01 59 1014.6
20260906130006 66 39 3.0 9.0 0.00 0.44 0.01 58 1014.4
20260906124601 66 148 1.0 4.0 0.00 0.44 0.01 61 1014.3
20260906123104 65 111 2.0 6.0 0.00 0.44 0.01 62 1014.3
20260906121558 65 129 2.0 9.0 0.00 0.44 0.01 62 1014.3
20260906120124 65 84 4.0 8.0 0.00 0.44 0.01 60 1014.1
20260906114605 66 138 1.0 7.0 0.00 0.44 0.01 65 1014.1
20260906113051 65 124 2.0 9.0 0.00 0.44 0.01 67 1014.0
20260906111553 65 75 1.0 8.0 0.00 0.44 0.01 71 1013.8
20260906110047 65 148 1.0 10.0 0.00 0.44 0.01 71 1013.8
20260906104546 65 98 0.0 12.0 0.00 0.44 0.01 76 1013.6
20260906103049 64 207 0.0 6.0 0.00 0.44 0.01 79 1013.6
20260906101542 64 308 2.0 9.0 0.00 0.44 0.01 77 1013.5
20260906100045 64 30 1.0 8.0 0.00 0.44 0.01 78 1013.3
20260906094547 63 66 0.0 1.0 0.00 0.44 0.01 81 1013.3
20260906093038 62 183 0.0 7.0 0.00 0.44 0.01 82 1013.3
20260906091535 61 352 2.0 7.0 0.00 0.44 0.01 84 1013.2
20260906090026 60 68 1.0 5.0 0.00 0.44 0.01 85 1013.2
20260906084523 60 101 1.0 4.0 0.00 0.44 0.01 88 1013.0
20260906083022 60 122 0.0 7.0 0.00 0.44 0.01 89 1012.9
20260906081519 59 358 0.0 5.0 0.00 0.44 0.01 93 1012.7
20260906080014 58 193 0.0 5.0 0.00 0.44 0.01 95 1012.4
20260906074512 58 71 0.0 3.0 0.00 0.44 0.01 98 1012.3
20260906073009 57 49 0.0 5.0 0.00 0.44 0.01 98 1012.3
20260906071505 56 91 0.0 4.0 0.00 0.44 0.01 98 1012.2
20260906070014 56 359 0.0 2.0 0.00 0.44 0.01 99 1012.0
20260906064501 54 68 0.0 3.0 0.00 0.44 0.01 99 1011.8
20260906063057 53 84 0.0 2.0 0.00 0.44 0.01 99 1011.7
20260906061554 51 32 0.0 2.0 0.00 0.44 0.01 99 1011.7
20260906060050 50 65 0.0 0.0 0.00 0.44 0.01 99 1011.4
20260906054602 48 65 0.0 0.0 0.00 0.44 0.01 99 1011.3
20260906053043 45 65 0.0 0.0 0.00 0.44 0.01 99 1011.1
20260906051541 44 65 0.0 0.0 0.00 0.44 0.01 99 1010.9
20260906050040 43 65 0.0 0.0 0.00 0.44 0.01 99 1010.7
20260906044539 42 65 0.0 0.0 0.00 0.44 0.01 99 1010.7
20260906043036 41 65 0.0 0.0 0.00 0.44 0.01 99 1010.4
20260906041535 41 65 0.0 0.0 0.00 0.44 0.01 99 1010.3
20260906040044 41 65 0.0 0.0 0.00 0.44 0.01 99 1010.1
20260906034545 42 65 0.0 0.0 0.00 0.44 0.01 99 1009.9
20260906033029 41 65 0.0 0.0 0.00 0.44 0.01 99 1009.8
20260906031556 42 65 0.0 0.0 0.00 0.44 0.01 99 1009.6
20260906030026 42 65 0.0 0.0 0.00 0.44 0.01 99 1009.5
20260906024548 43 65 0.0 0.0 0.00 0.44 0.01 99 1009.4
20260906023024 43 65 0.0 0.0 0.00 0.44 0.01 99 1009.3
20260906021522 44 65 0.0 1.0 0.00 0.44 0.01 99 1009.1
20260906020021 43 65 0.0 1.0 0.00 0.44 0.01 99 1009.1
20260906014520 42 65 0.0 0.0 0.00 0.44 0.01 99 1008.9
20260906013016 42 65 0.0 0.0 0.00 0.44 0.01 99 1008.8
20260906011512 43 65 0.0 0.0 0.00 0.44 0.01 99 1008.4
20260906010024 43 65 0.0 0.0 0.00 0.44 0.01 99 1008.2
20260906004508 44 65 0.0 0.0 0.00 0.44 0.01 99 1008.0
20260906003006 43 65 0.0 0.0 0.00 0.44 0.01 99 1007.8
20260906001503 44 65 0.0 0.0 0.01 0.44 0.01 98 1007.6
20260906000002 45 65 0.0 0.0 0.01 0.44 0.01 99 1007.5
20260905234606 46 65 0.0 1.0 0.01 0.44 0.01 99 1007.2
20260905233058 45 65 0.0 1.0 0.01 0.44 0.01 99 1007.1
20260905231556 45 65 0.0 0.0 0.00 0.43 0.00 99 1006.9
20260905230057 45 65 0.0 1.0 0.00 0.43 0.00 99 1006.8
20260905224552 45 65 0.0 2.0 0.00 0.43 0.00 99 1006.7
20260905223049 44 65 0.0 2.0 0.00 0.43 0.00 98 1006.5
20260905221549 44 65 0.0 2.0 0.00 0.43 0.00 99 1006.2
20260905220044 44 65 0.0 2.0 0.00 0.43 0.43 98 1006.0
20260905214543 45 65 0.0 2.0 0.00 0.43 0.43 98 1005.8
20260905213045 45 65 0.0 2.0 0.00 0.43 0.43 98 1005.6
20260905211558 46 65 0.0 2.0 0.00 0.43 0.43 99 1005.4
20260905210044 46 65 0.0 2.0 0.00 0.43 0.43 98 1005.1
20260905204536 46 65 0.0 2.0 0.00 0.43 0.43 98 1004.8
20260905203030 46 65 0.0 2.0 0.00 0.43 0.43 98 1004.5
20260905201533 46 65 0.0 2.0 0.00 0.43 0.43 98 1004.3
20260905200032 47 65 0.0 2.0 0.00 0.43 0.43 98 1004.1
20260905194523 47 65 0.0 2.0 0.00 0.43 0.43 98 1003.8
20260905193021 47 65 0.0 2.0 0.00 0.43 0.43 98 1003.7
20260905191519 48 65 0.0 2.0 0.00 0.43 0.43 98 1003.4
20260905190018 49 65 0.0 2.0 0.00 0.43 0.43 98 1003.3
20260905184516 49 65 0.0 2.0 0.00 0.43 0.43 97 1003.2
20260905183022 50 65 0.0 2.0 0.00 0.43 0.43 97 1002.9
20260905181511 51 65 0.0 2.0 0.00 0.43 0.43 97 1002.7
20260905180010 52 65 0.0 2.0 0.00 0.43 0.43 97 1002.5
20260905174508 53 65 0.0 2.0 0.02 0.43 0.43 97 1002.3
20260905173009 53 65 0.0 2.0 0.06 0.43 0.43 97 1002.0
20260905171503 54 356 0.0 2.0 0.09 0.43 0.43 97 1001.8
20260905170004 53 5 0.0 1.0 0.09 0.43 0.43 97 1001.7